Regional Weather Roundup
Issued by NWS

Home | Current Version | Previous Version | Graphics & Text | Print | Product List | Glossary On
Versions: 1 2 3 4 5 6 7 8 9 10 11 12 13 14 15 16 17 18 19 20 21 22 23 24 25 26 27 28 29 30 31 32 33 34 35 36 37 38 39 40 41 42 43 44 45 46 47 48 49 50
000
ASUS43 KFSD 040610
RWRSD

WEATHER ROUNDUP FOR SOUTH DAKOTA
NATIONAL WEATHER SERVICE SIOUX FALLS SD
1200 AM CST SUN DEC 04 2016

NOTE: "FAIR" INDICATES FEW OR NO CLOUDS BELOW 12,000 FEET WITH NO
SIGNIFICANT WEATHER AND/OR OBSTRUCTIONS TO VISIBILITY.


SDZ001>005-009-010-012>017-040700-
NORTHWEST AND NORTH CENTRAL SOUTH DAKOTA

CITY           SKY/WX    TMP DP  RH WIND       PRES   REMARKS
BUFFALO          N/A     30  24  78 W12       29.79R WCI  20
FAITH            N/A     32  27  81 W16       29.85S WCI  21
MOBRIDGE       CLOUDY    30  24  78 S5        29.81F WCI  25
$$

SDZ012>016-024>037-041>051-057-063-072>074-040700-
SOUTHWEST AND SOUTH CENTRAL SOUTH DAKOTA

CITY           SKY/WX    TMP DP  RH WIND       PRES   REMARKS
RAPID CTY ARPT CLEAR     27  20  75 W7        29.92R WCI  19
PIERRE         CLOUDY    30  23  75 SW10      29.88S WCI  21
CUSTER         CLEAR     25  17  72 W10       29.90R WCI  15
ELLSWORTH AFB  CLEAR     29  22  74 SW9       29.91R WCI  21
PHILIP         PTCLDY    29  23  78 W5        29.92R WCI  24
PINE RIDGE     PTCLDY    25  20  81 NW3       29.96R
SPEARFISH      CLOUDY    36  23  60 W14       29.91R
WINNER         FAIR      30  22  72 S7        29.92F WCI  23
$$

SDZ004>011-016>023-039-040-040700-
NORTHEAST SOUTH DAKOTA

CITY           SKY/WX    TMP DP  RH WIND       PRES   REMARKS
ABERDEEN       MOCLDY    32  30  92 S12       29.88F WCI  23
WATERTOWN      CLOUDY    32  32 100 S16       29.91F FOG     WCI  21
BROOKINGS      CLOUDY    32  31  96 S18       29.94F FOG     WCI  20
SISSETON         N/A     36  32  85 S17G24    29.91F
$$

SDZ017-020-022-023-036>040-048>070-040700-
SOUTHEAST SOUTH DAKOTA

CITY           SKY/WX    TMP DP  RH WIND       PRES   REMARKS
SIOUX FALLS    CLOUDY    34  33  96 S14G26    29.99F FOG     WCI  25
HURON          PTCLDY    32  32 100 S12       29.92R WCI  23
CHAMBERLAIN    CLEAR     28  25  89 SW3       29.91F
MITCHELL       CLEAR     34  32  92 S13       29.94F WCI  25
YANKTON        CLOUDY    36  30  80 S12       29.99F
$$

ABBREVIATIONS USED IN REMARKS
   TC - TEMPERATURE IN CELSIUS
  WCI - WIND CHILL INDEX
   HX - HEAT INDEX
  VSB - VISIBILITY





USA.gov is the U.S. government's official web portal to all federal, state and local government web resources and services.